Location: Ailly
(50.0793°N, 1.9944°E)
Time: 08:22:45
(UTC+00:00)

SJ 16-02 - Pass Details

Date: 15 January 2026
Orbit: 582 x 594 km, 75.0° (Epoch: 16 February)

Event Time Altitude Azimuth Distance (km) Brightness Sun altitude
Rises 06:20:47 0° 171° (S) 2,792 5.1 -13.0°
Reaches altitude 10° 06:23:12 10° 159° (SSE) 1,898 4.4 -12.7°
Maximum altitude 06:26:48 28° 101° (E) 1,120 3.6 -12.1°
Drops below altitude 10° 06:30:25 10° 43° (NE) 1,913 4.2 -11.6°
Sets 06:32:52 0° 31° (NNE) 2,819 4.9 -11.2°
